| time (UTC) | temp C | wind direction | speed KPH | gust KPH | rain 1hr cm | rain 24hr cm | rain mn cm | humidity % | barometer mb |
| 20260506073507 | 7 | 345 | 0.0 | 0.0 | 0.03 | 1.02 | 0.03 | 1 | 1014.4 |
| 20260506073050 | 7 | 345 | 0.0 | 0.0 | 0.03 | 1.02 | 0.03 | 1 | 1014.6 |
| 20260506072523 | 7 | 345 | 0.0 | 0.0 | 0.03 | 1.02 | 0.03 | 1 | 1014.6 |
| 20260506072103 | 7 | 345 | 0.0 | 3.2 | 0.03 | 1.02 | 0.03 | 1 | 1014.7 |
| 20260506071539 | 7 | 345 | 0.0 | 3.2 | 0.03 | 1.02 | 0.03 | 1 | 1014.9 |
| 20260506071018 | 7 | 3 | 0.0 | 4.8 | 0.03 | 1.14 | 0.03 | 1 | 1015.4 |
| 20260506070556 | 7 | 3 | 0.0 | 4.8 | 0.03 | 1.14 | 0.03 | 1 | 1015.5 |
| 20260506062036 | 7 | 28 | 0.0 | 1.6 | 0.00 | 1.12 | 0.00 | 1 | 1015.8 |
| 20260506061512 | 7 | 321 | 0.0 | 3.2 | 0.00 | 1.12 | 0.00 | 1 | 1015.9 |
| 20260506061054 | 7 | 321 | 0.0 | 4.8 | 0.00 | 1.37 | 0.00 | 1 | 1015.8 |
| 20260506060529 | 7 | 21 | 0.0 | 4.8 | 0.00 | 1.37 | 0.00 | 1 | 1015.6 |
| 20260506051028 | 7 | 305 | 1.6 | 8.0 | 0.00 | 1.37 | 1.37 | 1 | 1015.0 |
| 20260506050503 | 8 | 25 | 1.6 | 8.0 | 0.00 | 1.37 | 1.37 | 1 | 1014.8 |
| 20260506045105 | 8 | 49 | 0.0 | 0.0 | 0.00 | 1.37 | 1.37 | 1 | 1014.2 |
| 20260506044627 | 8 | 63 | 0.0 | 0.0 | 0.00 | 1.37 | 1.37 | 1 | 1014.1 |
| 20260506044016 | 8 | 63 | 0.0 | 0.0 | 0.00 | 1.37 | 1.37 | 1 | 1014.3 |
| 20260506043557 | 8 | 63 | 0.0 | 0.0 | 0.00 | 1.37 | 1.37 | 1 | 1014.3 |
| 20260506043033 | 8 | 63 | 0.0 | 0.0 | 0.00 | 1.37 | 1.37 | 1 | 1014.1 |
| 20260506042510 | 8 | 63 | 0.0 | 0.0 | 0.00 | 1.37 | 1.37 | 1 | 1014.0 |
| 20260506042047 | 8 | 63 | 0.0 | 0.0 | 0.00 | 1.37 | 1.37 | 1 | 1013.7 |
| 20260506041524 | 8 | 63 | 0.0 | 0.0 | 0.00 | 1.37 | 1.37 | 1 | 1013.7 |
| 20260506041104 | 8 | 63 | 0.0 | 0.0 | 0.00 | 1.37 | 1.37 | 1 | 1013.8 |
| 20260506040543 | 8 | 63 | 0.0 | 0.0 | 0.00 | 1.37 | 1.37 | 1 | 1014.0 |
| 20260506040016 | 8 | 63 | 0.0 | 0.0 | 0.00 | 1.37 | 1.37 | 1 | 1013.8 |
| 20260506035556 | 8 | 63 | 0.0 | 0.0 | 0.00 | 1.37 | 1.37 | 1 | 1013.8 |
| 20260506035033 | 8 | 63 | 0.0 | 0.0 | 0.00 | 1.37 | 1.37 | 1 | 1013.8 |
| 20260506034518 | 8 | 63 | 0.0 | 0.0 | 0.00 | 1.37 | 1.37 | 1 | 1013.6 |
| 20260506034049 | 8 | 63 | 0.0 | 0.0 | 0.00 | 1.37 | 1.37 | 1 | 1013.6 |
| 20260506033523 | 8 | 7 | 0.0 | 0.0 | 0.00 | 1.37 | 1.37 | 1 | 1013.4 |
| 20260506033107 | 8 | 7 | 0.0 | 0.0 | 0.00 | 1.37 | 1.37 | 1 | 1013.5 |
| 20260506032540 | 8 | 7 | 0.0 | 0.0 | 0.00 | 1.37 | 1.37 | 1 | 1013.4 |
| 20260506032016 | 8 | 7 | 0.0 | 0.0 | 0.00 | 1.37 | 1.37 | 1 | 1013.4 |
| 20260506031603 | 8 | 7 | 0.0 | 0.0 | 0.00 | 1.37 | 1.37 | 1 | 1013.2 |
| 20260506031032 | 8 | 7 | 0.0 | 0.0 | 0.00 | 1.37 | 1.37 | 1 | 1013.2 |
| 20260506030507 | 8 | 7 | 0.0 | 0.0 | 0.00 | 1.37 | 1.37 | 1 | 1013.2 |
| 20260506030047 | 8 | 7 | 0.0 | 0.0 | 0.00 | 1.37 | 1.37 | 1 | 1013.0 |
| 20260506025523 | 8 | 7 | 0.0 | 0.0 | 0.00 | 1.37 | 1.37 | 1 | 1012.8 |
| 20260506025104 | 8 | 7 | 0.0 | 0.0 | 0.00 | 1.37 | 1.37 | 1 | 1012.8 |
| 20260506024539 | 8 | 7 | 0.0 | 0.0 | 0.00 | 1.37 | 1.37 | 1 | 1012.7 |
| 20260506024015 | 8 | 7 | 0.0 | 0.0 | 0.00 | 1.37 | 1.37 | 1 | 1012.7 |
| 20260506023555 | 8 | 7 | 0.0 | 0.0 | 0.00 | 1.37 | 1.37 | 1 | 1012.6 |
| 20260506023037 | 8 | 7 | 0.0 | 0.0 | 0.00 | 1.37 | 1.37 | 1 | 1012.5 |
| 20260506022507 | 8 | 7 | 0.0 | 0.0 | 0.00 | 1.37 | 1.37 | 1 | 1012.4 |
| 20260506022048 | 8 | 7 | 0.0 | 0.0 | 0.00 | 1.37 | 1.37 | 1 | 1012.4 |
| 20260506021522 | 8 | 7 | 0.0 | 0.0 | 0.00 | 1.37 | 1.37 | 1 | 1012.4 |
| 20260506021104 | 8 | 7 | 0.0 | 0.0 | 0.00 | 1.37 | 1.37 | 1 | 1012.3 |
| 20260506020541 | 8 | 7 | 0.0 | 0.0 | 0.00 | 1.37 | 1.37 | 1 | 1012.0 |
| 20260506020013 | 8 | 7 | 0.0 | 0.0 | 0.00 | 1.37 | 1.37 | 1 | 1012.0 |
| 20260506015555 | 8 | 7 | 0.0 | 0.0 | 0.00 | 1.37 | 1.37 | 1 | 1012.0 |
| 20260506015034 | 8 | 7 | 0.0 | 0.0 | 0.00 | 1.37 | 1.37 | 1 | 1012.0 |
| 20260506014506 | 8 | 7 | 0.0 | 0.0 | 0.00 | 1.37 | 1.37 | 1 | 1011.9 |
| 20260506014047 | 8 | 7 | 0.0 | 0.0 | 0.00 | 1.37 | 1.37 | 1 | 1012.0 |
| 20260506013523 | 8 | 7 | 0.0 | 0.0 | 0.00 | 1.37 | 1.37 | 1 | 1012.0 |
| 20260506013104 | 9 | 7 | 0.0 | 0.0 | 0.00 | 1.37 | 1.37 | 1 | 1012.0 |
| 20260506012540 | 9 | 7 | 0.0 | 0.0 | 0.00 | 1.37 | 1.37 | 1 | 1011.9 |
| 20260506012015 | 9 | 7 | 0.0 | 0.0 | 0.00 | 1.37 | 1.37 | 1 | 1011.7 |
| 20260506011617 | 9 | 7 | 0.0 | 0.0 | 0.00 | 1.37 | 1.37 | 1 | 1011.7 |
| 20260506011031 | 9 | 7 | 0.0 | 0.0 | 0.00 | 1.37 | 1.37 | 1 | 1011.7 |
| 20260506010508 | 9 | 7 | 0.0 | 0.0 | 0.00 | 1.37 | 1.37 | 1 | 1011.7 |
| 20260506010059 | 9 | 7 | 0.0 | 0.0 | 0.00 | 1.37 | 1.37 | 1 | 1011.4 |
| 20260506005526 | 9 | 7 | 0.0 | 0.0 | 0.00 | 1.37 | 1.37 | 1 | 1011.5 |
| 20260506005001 | 9 | 7 | 0.0 | 0.0 | 0.00 | 1.37 | 1.37 | 1 | 1011.7 |
| 20260506004601 | 9 | 7 | 0.0 | 0.0 | 0.00 | 1.37 | 1.37 | 1 | 1011.7 |
| 20260506004019 | 9 | 7 | 0.0 | 0.0 | 0.00 | 1.37 | 1.37 | 1 | 1011.8 |
| 20260506003559 | 9 | 7 | 0.0 | 0.0 | 0.00 | 1.37 | 1.37 | 1 | 1011.7 |
| 20260506003044 | 9 | 7 | 0.0 | 0.0 | 0.00 | 1.37 | 1.37 | 1 | 1011.3 |
| 20260506002511 | 9 | 7 | 0.0 | 0.0 | 0.00 | 1.37 | 1.37 | 1 | 1011.2 |
| 20260506002049 | 9 | 7 | 0.0 | 0.0 | 0.00 | 1.37 | 1.37 | 1 | 1011.2 |
| 20260506001524 | 9 | 7 | 0.0 | 0.0 | 0.00 | 1.37 | 1.37 | 1 | 1011.2 |
| 20260506001105 | 9 | 7 | 0.0 | 0.0 | 0.00 | 1.37 | 1.37 | 1 | 1011.2 |
| 20260506000541 | 9 | 7 | 0.0 | 0.0 | 0.00 | 1.37 | 1.37 | 1 | 1011.0 |
| 20260506000017 | 9 | 7 | 0.0 | 1.6 | 0.00 | 1.37 | 1.37 | 1 | 1010.8 |
| 20260505235557 | 9 | 7 | 0.0 | 1.6 | 0.00 | 1.37 | 1.37 | 1 | 1010.8 |
| 20260505235033 | 9 | 6 | 0.0 | 0.0 | 0.00 | 1.37 | 1.37 | 1 | 1011.1 |
| 20260505234513 | 9 | 6 | 0.0 | 0.0 | 0.00 | 1.37 | 1.37 | 1 | 1011.1 |
| 20260505234051 | 9 | 6 | 0.0 | 0.0 | 0.00 | 1.37 | 1.37 | 1 | 1011.0 |
| 20260505233532 | 9 | 6 | 0.0 | 0.0 | 0.00 | 1.37 | 1.37 | 1 | 1011.3 |
| 20260505233007 | 9 | 6 | 0.0 | 0.0 | 0.00 | 1.37 | 1.37 | 1 | 1011.5 |
| 20260505232545 | 9 | 6 | 0.0 | 0.0 | 0.00 | 1.37 | 1.37 | 1 | 1011.4 |
| 20260505232020 | 9 | 6 | 0.0 | 0.0 | 0.00 | 1.37 | 1.37 | 1 | 1011.3 |
| 20260505231601 | 9 | 6 | 0.0 | 0.0 | 0.00 | 1.37 | 1.37 | 1 | 1011.3 |
| 20260505231036 | 9 | 6 | 0.0 | 0.0 | 0.00 | 1.37 | 1.37 | 1 | 1011.3 |
| 20260505230513 | 9 | 6 | 0.0 | 0.0 | 0.00 | 1.37 | 1.37 | 1 | 1011.3 |
| 20260505230052 | 9 | 6 | 0.0 | 0.0 | 0.00 | 1.37 | 1.37 | 1 | 1011.1 |
| 20260505225529 | 9 | 6 | 0.0 | 0.0 | 0.00 | 1.37 | 1.37 | 1 | 1011.2 |
| 20260505225007 | 9 | 6 | 0.0 | 1.6 | 0.00 | 1.37 | 1.37 | 1 | 1011.2 |
| 20260505224546 | 9 | 6 | 0.0 | 1.6 | 0.00 | 1.37 | 1.37 | 1 | 1011.2 |
| 20260505224019 | 9 | 6 | 0.0 | 1.6 | 0.00 | 1.37 | 1.37 | 1 | 1011.2 |
| 20260505223600 | 8 | 6 | 0.0 | 1.6 | 0.00 | 1.37 | 1.37 | 1 | 1011.1 |
| 20260505223036 | 9 | 6 | 0.0 | 1.6 | 0.00 | 1.37 | 1.37 | 1 | 1011.2 |
| 20260505222515 | 9 | 6 | 0.0 | 0.0 | 0.00 | 1.37 | 1.37 | 1 | 1011.3 |
| 20260505222054 | 8 | 6 | 0.0 | 3.2 | 0.00 | 1.37 | 1.37 | 1 | 1011.3 |
| 20260505221530 | 8 | 6 | 0.0 | 3.2 | 0.00 | 1.37 | 1.37 | 1 | 1011.1 |
| 20260505221005 | 8 | 6 | 0.0 | 3.2 | 0.00 | 1.37 | 1.37 | 1 | 1011.2 |
| 20260505220545 | 8 | 6 | 0.0 | 3.2 | 0.00 | 1.37 | 1.37 | 1 | 1011.2 |
| 20260505220029 | 8 | 31 | 0.0 | 1.6 | 0.00 | 1.37 | 1.37 | 1 | 1011.3 |
| 20260505215605 | 8 | 31 | 0.0 | 6.4 | 0.00 | 1.37 | 1.37 | 1 | 1011.3 |
| 20260505215039 | 8 | 20 | 3.2 | 6.4 | 0.00 | 1.37 | 1.37 | 1 | 1011.0 |
| 20260505214522 | 8 | 10 | 0.0 | 3.2 | 0.00 | 1.37 | 1.37 | 1 | 1011.0 |
| 20260505214057 | 8 | 354 | 0.0 | 1.6 | 0.00 | 1.37 | 1.37 | 1 | 1011.1 |
| 20260505213532 | 8 | 354 | 0.0 | 1.6 | 0.00 | 1.37 | 1.37 | 1 | 1011.2 |
| 20260505213008 | 8 | 354 | 0.0 | 0.0 | 0.00 | 1.37 | 1.37 | 1 | 1011.1 |
| 20260505212550 | 8 | 354 | 0.0 | 0.0 | 0.00 | 1.37 | 1.37 | 1 | 1011.2 |
| 20260505212025 | 8 | 354 | 0.0 | 0.0 | 0.00 | 1.37 | 1.37 | 1 | 1011.4 |
| 20260505211502 | 8 | 354 | 0.0 | 0.0 | 0.00 | 1.37 | 1.37 | 1 | 1011.3 |
| 20260505211043 | 8 | 354 | 0.0 | 1.6 | 0.00 | 1.37 | 1.37 | 1 | 1011.3 |
| 20260505210518 | 8 | 354 | 0.0 | 1.6 | 0.00 | 1.37 | 1.37 | 1 | 1011.3 |
| 20260505210058 | 8 | 354 | 0.0 | 0.0 | 0.00 | 1.37 | 1.37 | 1 | 1011.4 |
| 20260505205534 | 8 | 354 | 0.0 | 0.0 | 0.00 | 1.37 | 1.37 | 1 | 1011.4 |
| 20260505205011 | 8 | 354 | 0.0 | 0.0 | 0.03 | 1.37 | 1.37 | 1 | 1011.2 |
| 20260505204551 | 8 | 354 | 0.0 | 0.0 | 0.03 | 1.37 | 1.37 | 1 | 1011.4 |
| 20260505204028 | 8 | 354 | 0.0 | 0.0 | 0.03 | 1.37 | 1.37 | 1 | 1011.5 |
| 20260505203504 | 8 | 354 | 0.0 | 0.0 | 0.03 | 1.37 | 1.37 | 1 | 1011.4 |
| 20260505203045 | 8 | 354 | 0.0 | 0.0 | 0.03 | 1.37 | 1.37 | 1 | 1011.4 |
| 20260505202524 | 8 | 354 | 0.0 | 0.0 | 0.03 | 1.37 | 1.37 | 1 | 1011.4 |
| 20260505202103 | 8 | 354 | 0.0 | 0.0 | 0.03 | 1.37 | 1.37 | 1 | 1011.5 |
| 20260505201539 | 8 | 354 | 0.0 | 0.0 | 0.03 | 1.37 | 1.37 | 1 | 1011.3 |
| 20260505201014 | 8 | 354 | 0.0 | 1.6 | 0.03 | 1.37 | 1.37 | 1 | 1011.0 |
| 20260505200555 | 8 | 354 | 0.0 | 1.6 | 0.03 | 1.37 | 1.37 | 1 | 1010.9 |
| 20260505200032 | 8 | 354 | 0.0 | 0.0 | 0.03 | 1.37 | 1.37 | 1 | 1010.8 |
| 20260505195508 | 8 | 354 | 0.0 | 0.0 | 0.03 | 1.37 | 1.37 | 1 | 1011.0 |
| 20260505195049 | 8 | 354 | 0.0 | 0.0 | 0.00 | 1.35 | 1.35 | 1 | 1011.2 |
| 20260505194533 | 7 | 354 | 0.0 | 0.0 | 0.00 | 1.35 | 1.35 | 1 | 1011.3 |
| 20260505194003 | 7 | 354 | 0.0 | 0.0 | 0.00 | 1.35 | 1.35 | 1 | 1011.4 |
| 20260505193544 | 8 | 354 | 0.0 | 1.6 | 0.00 | 1.35 | 1.35 | 1 | 1011.5 |
| 20260505193033 | 7 | 354 | 0.0 | 1.6 | 0.00 | 1.35 | 1.35 | 1 | 1011.4 |
| 20260505192558 | 7 | 354 | 0.0 | 0.0 | 0.00 | 1.35 | 1.35 | 1 | 1011.2 |
| 20260505192034 | 7 | 354 | 0.0 | 0.0 | 0.00 | 1.35 | 1.35 | 1 | 1011.0 |
| 20260505191511 | 7 | 354 | 0.0 | 0.0 | 0.00 | 1.35 | 1.35 | 1 | 1011.1 |
| 20260505191052 | 7 | 354 | 0.0 | 0.0 | 0.00 | 1.35 | 1.35 | 1 | 1011.1 |
| 20260505190527 | 7 | 354 | 0.0 | 0.0 | 0.00 | 1.35 | 1.35 | 1 | 1011.2 |
| 20260505190004 | 7 | 354 | 0.0 | 0.0 | 0.00 | 1.35 | 1.35 | 1 | 1011.2 |
| 20260505185543 | 7 | 354 | 0.0 | 0.0 | 0.00 | 1.35 | 1.35 | 1 | 1011.2 |
| 20260505185019 | 7 | 354 | 0.0 | 0.0 | 0.00 | 1.35 | 1.35 | 1 | 1011.3 |
| 20260505184608 | 7 | 354 | 0.0 | 1.6 | 0.00 | 1.35 | 1.35 | 1 | 1011.4 |
| 20260505184036 | 7 | 354 | 0.0 | 1.6 | 0.00 | 1.35 | 1.35 | 1 | 1011.4 |
| 20260505183512 | 7 | 354 | 0.0 | 0.0 | 0.00 | 1.35 | 1.35 | 1 | 1011.5 |
| 20260505183052 | 7 | 354 | 0.0 | 1.6 | 0.00 | 1.35 | 1.35 | 1 | 1011.3 |
| 20260505182528 | 7 | 354 | 0.0 | 3.2 | 0.00 | 1.35 | 1.35 | 1 | 1011.7 |
| 20260505182005 | 7 | 354 | 0.0 | 3.2 | 0.00 | 1.35 | 1.35 | 1 | 1011.5 |
| 20260505181546 | 7 | 339 | 0.0 | 4.8 | 0.03 | 1.35 | 1.35 | 1 | 1011.7 |
| 20260505181023 | 7 | 339 | 0.0 | 4.8 | 0.03 | 1.35 | 1.35 | 1 | 1011.8 |
| 20260505180603 | 7 | 331 | 0.0 | 3.2 | 0.03 | 1.35 | 1.35 | 1 | 1011.9 |
| 20260505180051 | 7 | 354 | 0.0 | 6.4 | 0.03 | 1.35 | 1.35 | 1 | 1012.0 |
| 20260505175517 | 7 | 347 | 1.6 | 6.4 | 0.08 | 1.35 | 1.35 | 1 | 1012.0 |
| 20260505175100 | 7 | 347 | 1.6 | 3.2 | 0.08 | 1.35 | 1.35 | 1 | 1012.1 |
| 20260505174540 | 7 | 342 | 0.0 | 3.2 | 0.13 | 1.35 | 1.35 | 1 | 1011.8 |
| 20260505174011 | 7 | 283 | 0.0 | 1.6 | 0.15 | 1.35 | 1.35 | 1 | 1011.5 |
| 20260505173551 | 7 | 184 | 0.0 | 1.6 | 0.15 | 1.35 | 1.35 | 1 | 1011.1 |
| 20260505173027 | 7 | 179 | 0.0 | 3.2 | 0.15 | 1.35 | 1.35 | 1 | 1011.5 |
| 20260505172503 | 7 | 181 | 0.0 | 3.2 | 0.15 | 1.35 | 1.35 | 1 | 1011.8 |
| 20260505172043 | 7 | 167 | 0.0 | 1.6 | 0.15 | 1.35 | 1.35 | 1 | 1011.7 |
| 20260505171519 | 7 | 232 | 0.0 | 3.2 | 0.13 | 1.32 | 1.32 | 1 | 1011.6 |
| 20260505171103 | 7 | 212 | 0.0 | 1.6 | 0.15 | 1.32 | 1.32 | 1 | 1011.8 |
| 20260505170536 | 7 | 5 | 0.0 | 1.6 | 0.15 | 1.32 | 1.32 | 1 | 1011.9 |
| 20260505170023 | 7 | 5 | 0.0 | 6.4 | 0.15 | 1.30 | 1.30 | 1 | 1011.7 |
| 20260505165553 | 7 | 5 | 0.0 | 6.4 | 0.15 | 1.27 | 1.27 | 1 | 1011.6 |
| 20260505165029 | 7 | 310 | 0.0 | 6.4 | 0.13 | 1.24 | 1.24 | 1 | 1011.2 |
| 20260505164505 | 7 | 356 | 1.6 | 4.8 | 0.10 | 1.22 | 1.22 | 1 | 1011.8 |
| 20260505164045 | 7 | 1 | 0.0 | 4.8 | 0.08 | 1.19 | 1.19 | 1 | 1012.1 |
| 20260505163521 | 7 | 31 | 1.6 | 6.4 | 0.08 | 1.19 | 1.19 | 1 | 1011.9 |
| 20260505163101 | 7 | 17 | 1.6 | 6.4 | 0.08 | 1.19 | 1.19 | 1 | 1012.0 |
| 20260505162536 | 7 | 359 | 0.0 | 8.0 | 0.08 | 1.19 | 1.19 | 1 | 1012.0 |
| 20260505162013 | 7 | 8 | 1.6 | 8.0 | 0.08 | 1.19 | 1.19 | 1 | 1012.0 |
| 20260505161601 | 7 | 333 | 0.0 | 8.0 | 0.08 | 1.19 | 1.19 | 1 | 1011.8 |
| 20260505161032 | 7 | 9 | 3.2 | 8.0 | 0.05 | 1.17 | 1.17 | 1 | 1011.7 |
| 20260505160505 | 7 | 353 | 1.6 | 8.0 | 0.05 | 1.17 | 1.17 | 1 | 1011.7 |
| 20260505153042 | 8 | 327 | 4.8 | 11.3 | 0.08 | 1.12 | 1.12 | 1 | 1011.0 |
| 20260505152510 | 8 | 18 | 1.6 | 11.3 | 0.10 | 1.12 | 1.12 | 1 | 1011.2 |
| 20260505152049 | 8 | 359 | 3.2 | 8.0 | 0.13 | 1.12 | 1.12 | 1 | 1011.4 |
| 20260505151529 | 8 | 336 | 3.2 | 8.0 | 0.13 | 1.12 | 1.12 | 1 | 1011.2 |
| 20260505151001 | 8 | 352 | 0.0 | 6.4 | 0.13 | 1.12 | 1.12 | 1 | 1011.2 |
| 20260505150542 | 8 | 313 | 0.0 | 6.4 | 0.15 | 1.12 | 1.12 | 1 | 1011.2 |
| 20260505140518 | 7 | 353 | 0.0 | 9.7 | 0.08 | 0.97 | 0.97 | 1 | 1011.3 |
| 20260505124519 | 8 | 11 | 1.6 | 8.0 | 0.00 | 0.86 | 0.86 | 1 | 1008.6 |
| 20260505124059 | 8 | 27 | 0.0 | 6.4 | 0.00 | 0.86 | 0.86 | 1 | 1008.5 |
| 20260505123535 | 8 | 38 | 1.6 | 6.4 | 0.00 | 0.86 | 0.86 | 1 | 1009.1 |
| 20260505123011 | 8 | 343 | 0.0 | 6.4 | 0.00 | 0.86 | 0.86 | 1 | 1009.0 |
| 20260505122552 | 8 | 330 | 1.6 | 6.4 | 0.00 | 0.86 | 0.86 | 1 | 1008.9 |
| 20260505122026 | 8 | 333 | 1.6 | 6.4 | 0.00 | 0.86 | 0.86 | 1 | 1008.7 |
| 20260505121502 | 8 | 326 | 0.0 | 8.0 | 0.00 | 0.86 | 0.86 | 1 | 1008.7 |
| 20260505121042 | 8 | 355 | 0.0 | 8.0 | 0.00 | 0.86 | 0.86 | 1 | 1008.6 |
| 20260505120521 | 8 | 14 | 1.6 | 6.4 | 0.00 | 0.86 | 0.86 | 1 | 1008.5 |
| 20260505120059 | 8 | 339 | 1.6 | 3.2 | 0.00 | 0.86 | 0.86 | 1 | 1008.3 |
| 20260505115535 | 8 | 2 | 0.0 | 3.2 | 0.00 | 0.86 | 0.86 | 1 | 1008.5 |
| 20260505115011 | 8 | 338 | 0.0 | 3.2 | 0.00 | 0.86 | 0.86 | 1 | 1008.8 |
| 20260505114611 | 8 | 354 | 0.0 | 3.2 | 0.00 | 0.86 | 0.86 | 1 | 1008.7 |
| 20260505114028 | 8 | 357 | 0.0 | 1.6 | 0.00 | 0.86 | 0.86 | 1 | 1008.5 |
| 20260505113504 | 8 | 357 | 0.0 | 6.4 | 0.00 | 0.86 | 0.86 | 1 | 1008.3 |
| 20260505113045 | 8 | 357 | 0.0 | 6.4 | 0.00 | 0.86 | 0.86 | 1 | 1008.0 |
| 20260505112520 | 8 | 338 | 1.6 | 6.4 | 0.00 | 0.86 | 0.86 | 1 | 1008.0 |
| 20260505112008 | 8 | 350 | 1.6 | 8.0 | 0.00 | 0.86 | 0.86 | 1 | 1007.8 |
| 20260505111601 | 8 | 326 | 0.0 | 12.9 | 0.00 | 0.86 | 0.86 | 1 | 1007.8 |
| 20260505111022 | 8 | 1 | 0.0 | 12.9 | 0.00 | 0.86 | 0.86 | 1 | 1007.8 |
| 20260505110604 | 8 | 333 | 1.6 | 9.7 | 0.00 | 0.86 | 0.86 | 1 | 1007.9 |
| 20260505102041 | 8 | 38 | 4.8 | 11.3 | 0.00 | 0.86 | 0.86 | 1 | 1008.0 |
| 20260505101518 | 8 | 348 | 4.8 | 9.7 | 0.00 | 0.86 | 0.86 | 1 | 1008.0 |
| 20260505101059 | 8 | 353 | 3.2 | 8.0 | 0.00 | 0.86 | 0.86 | 1 | 1007.8 |
| 20260505100535 | 8 | 328 | 3.2 | 8.0 | 0.00 | 0.86 | 0.86 | 1 | 1007.9 |
| 20260505100011 | 8 | 27 | 1.6 | 9.7 | 0.00 | 0.86 | 0.86 | 1 | 1007.8 |
| 20260505095552 | 8 | 346 | 3.2 | 11.3 | 0.00 | 0.86 | 0.86 | 1 | 1007.7 |
| 20260505095027 | 8 | 32 | 4.8 | 11.3 | 0.00 | 0.86 | 0.86 | 1 | 1007.5 |
| 20260505094502 | 8 | 340 | 3.2 | 9.7 | 0.00 | 0.86 | 0.86 | 1 | 1007.5 |
| 20260505094045 | 8 | 333 | 1.6 | 8.0 | 0.00 | 0.86 | 0.86 | 1 | 1007.5 |
| 20260505093520 | 8 | 341 | 1.6 | 9.7 | 0.00 | 0.86 | 0.86 | 1 | 1007.2 |
| 20260505093101 | 8 | 2 | 1.6 | 9.7 | 0.03 | 0.86 | 0.86 | 1 | 1007.1 |
| 20260505092537 | 8 | 339 | 1.6 | 9.7 | 0.13 | 0.86 | 0.86 | 1 | 1007.0 |
| 20260505092013 | 8 | 354 | 3.2 | 11.3 | 0.18 | 0.86 | 0.86 | 1 | 1007.3 |
| 20260505091554 | 8 | 29 | 1.6 | 11.3 | 0.23 | 0.86 | 0.86 | 1 | 1007.3 |
| 20260505091029 | 8 | 20 | 0.0 | 12.9 | 0.28 | 0.86 | 0.86 | 1 | 1007.0 |
| 20260505090506 | 8 | 10 | 3.2 | 12.9 | 0.30 | 0.86 | 0.86 | 1 | 1006.5 |
| 20260505090053 | 8 | 346 | 1.6 | 12.9 | 0.33 | 0.86 | 0.86 | 1 | 1006.2 |
| 20260505085526 | 8 | 22 | 6.4 | 19.3 | 0.38 | 0.86 | 0.86 | 1 | 1005.4 |
| 20260505085001 | 8 | 360 | 4.8 | 24.1 | 0.38 | 0.86 | 0.86 | 1 | 1004.3 |
| 20260505084542 | 8 | 331 | 6.4 | 24.1 | 0.41 | 0.86 | 0.86 | 1 | 1003.7 |
| 20260505084018 | 8 | 326 | 6.4 | 14.5 | 0.41 | 0.86 | 0.86 | 1 | 1003.4 |
| 20260505083559 | 8 | 305 | 6.4 | 14.5 | 0.43 | 0.86 | 0.86 | 1 | 1004.4 |
| 20260505083044 | 8 | 326 | 1.6 | 8.0 | 0.43 | 0.84 | 0.84 | 1 | 1006.5 |
| 20260505082510 | 9 | 18 | 0.0 | 4.8 | 0.33 | 0.71 | 0.71 | 1 | 1007.7 |
| 20260505082051 | 9 | 319 | 1.6 | 4.8 | 0.28 | 0.69 | 0.69 | 1 | 1007.8 |
| 20260505081533 | 9 | 337 | 0.0 | 3.2 | 0.20 | 0.61 | 0.61 | 1 | 1007.5 |
| 20260505081009 | 10 | 318 | 0.0 | 0.0 | 0.20 | 0.58 | 0.58 | 1 | 1008.1 |
| 20260505080546 | 10 | 318 | 0.0 | 0.0 | 0.18 | 0.56 | 0.56 | 1 | 1008.5 |
| 20260505080033 | 10 | 318 | 0.0 | 0.0 | 0.15 | 0.51 | 0.51 | 1 | 1008.8 |
| 20260505075602 | 10 | 318 | 0.0 | 0.0 | 0.15 | 0.48 | 0.48 | 1 | 1008.9 |
| 20260505075037 | 10 | 318 | 0.0 | 1.6 | 0.20 | 0.48 | 0.48 | 1 | 1008.5 |